| time (UTC) | temp F | wind direction | speed MPH | gust MPH | rain 1hr in | rain 24hr in | rain mn in | humidity % | barometer mb |
| 20260902202004 | 0 | 0 | 0.0 | 0.0 | 0.00 | 0.00 | 0.00 | 1 | |
| 20260902201003 | 0 | 0 | 0.0 | 0.0 | 0.00 | 0.00 | 0.00 | 1 | |
| 20260902200004 | 0 | 0 | 0.0 | 0.0 | 0.00 | 0.00 | 0.00 | 1 | |
| 20260902195005 | 0 | 0 | 0.0 | 0.0 | 0.00 | 0.00 | 0.00 | 1 | |
| 20260902194004 | 0 | 0 | 0.0 | 0.0 | 0.00 | 0.00 | 0.00 | 1 | |
| 20260902193026 | 0 | 0 | 0.0 | 0.0 | 0.00 | 0.00 | 0.00 | 1 | |
| 20260902192005 | 0 | 0 | 0.0 | 0.0 | 0.00 | 0.00 | 0.00 | 1 | |
| 20260902191004 | 0 | 0 | 0.0 | 0.0 | 0.00 | 0.01 | 0.00 | 1 | |
| 20260902190004 | 0 | 0 | 0.0 | 0.0 | 0.00 | 0.02 | 0.00 | 1 | |
| 20260902185025 | 0 | 0 | 0.0 | 0.0 | 0.00 | 0.02 | 0.00 | 1 | |
| 20260902184004 | 0 | 0 | 0.0 | 0.0 | 0.00 | 0.03 | 0.00 | 1 | |
| 20260902183004 | 0 | 0 | 0.0 | 0.0 | 0.00 | 0.05 | 0.00 | 1 | |
| 20260902182004 | 0 | 0 | 0.0 | 0.0 | 0.00 | 0.08 | 0.00 | 1 | |
| 20260902181025 | 0 | 0 | 0.0 | 0.0 | 0.00 | 0.08 | 0.00 | 1 | |
| 20260902180007 | 0 | 0 | 0.0 | 0.0 | 0.00 | 0.08 | 0.00 | 1 | |
| 20260902175026 | 0 | 0 | 0.0 | 0.0 | 0.00 | 0.08 | 0.00 | 1 | |
| 20260902174005 | 0 | 0 | 0.0 | 0.0 | 0.00 | 0.08 | 0.00 | 1 | |
| 20260902173005 | 0 | 0 | 0.0 | 0.0 | 0.00 | 0.08 | 0.00 | 1 | |
| 20260902162004 | 0 | 0 | 0.0 | 0.0 | 0.00 | 0.00 | 0.00 | 1 | |
| 20260902161004 | 0 | 0 | 0.0 | 0.0 | 0.00 | 0.00 | 0.00 | 1 | |
| 20260902160006 | 0 | 0 | 0.0 | 0.0 | 0.00 | 0.00 | 0.00 | 1 | |
| 20260902155025 | 0 | 0 | 0.0 | 0.0 | 0.00 | 0.00 | 0.00 | 1 | |
| 20260902154004 | 0 | 0 | 0.0 | 0.0 | 0.00 | 0.00 | 0.00 | 1 | |
| 20260902153025 | 0 | 0 | 0.0 | 0.0 | 0.00 | 0.00 | 0.00 | 1 | |
| 20260902152004 | 0 | 0 | 0.0 | 0.0 | 0.00 | 0.00 | 0.00 | 1 | |
| 20260902151004 | 0 | 0 | 0.0 | 0.0 | 0.00 | 0.00 | 0.00 | 1 | |
| 20260902150005 | 0 | 0 | 0.0 | 0.0 | 0.00 | 0.00 | 0.00 | 1 | |
| 20260902145006 | 0 | 0 | 0.0 | 0.0 | 0.00 | 0.00 | 0.00 | 1 | |
| 20260902144006 | 0 | 0 | 0.0 | 0.0 | 0.00 | 0.00 | 0.00 | 1 | |
| 20260902143004 | 0 | 0 | 0.0 | 0.0 | 0.00 | 0.00 | 0.00 | 1 | |
| 20260902142005 | 0 | 0 | 0.0 | 0.0 | 0.00 | 0.00 | 0.00 | 1 | |
| 20260902023003 | 60 | 99 | 0.0 | 3.0 | 0.00 | 0.11 | 0.11 | 92 | 1019.0 |
| 20260902022003 | 60 | 273 | 1.0 | 3.0 | 0.00 | 0.11 | 0.11 | 92 | 1018.8 |
| 20260902021003 | 60 | 289 | 1.0 | 3.0 | 0.00 | 0.11 | 0.11 | 91 | 1018.8 |
| 20260902020003 | 61 | 167 | 0.0 | 3.0 | 0.00 | 0.11 | 0.11 | 91 | 1018.6 |
| 20260902015003 | 61 | 158 | 2.0 | 3.0 | 0.00 | 0.11 | 0.11 | 91 | 1018.8 |
| 20260902014003 | 61 | 105 | 0.0 | 2.0 | 0.00 | 0.11 | 0.11 | 91 | 1018.7 |
| 20260902013003 | 61 | 191 | 0.0 | 3.0 | 0.00 | 0.11 | 0.11 | 91 | 1018.9 |
| 20260902012003 | 62 | 348 | 2.0 | 3.0 | 0.00 | 0.11 | 0.11 | 91 | 1018.8 |
| 20260902011003 | 62 | 28 | 0.0 | 3.0 | 0.00 | 0.11 | 0.11 | 92 | 1018.6 |
| 20260902010003 | 62 | 124 | 0.0 | 3.0 | 0.00 | 0.11 | 0.11 | 92 | 1018.7 |
| 20260902005003 | 62 | 137 | 0.0 | 3.0 | 0.00 | 0.11 | 0.11 | 92 | 1018.9 |
| 20260902004003 | 63 | 306 | 1.0 | 4.0 | 0.00 | 0.11 | 0.11 | 92 | 1018.7 |
| 20260902003003 | 63 | 89 | 2.0 | 4.0 | 0.00 | 0.11 | 0.11 | 93 | 1018.9 |
| 20260902002003 | 63 | 30 | 0.0 | 3.0 | 0.00 | 0.11 | 0.11 | 93 | 1018.8 |
| 20260902001003 | 63 | 99 | 1.0 | 4.0 | 0.00 | 0.11 | 0.11 | 92 | 1018.7 |
| 20260902000003 | 63 | 265 | 1.0 | 9.0 | 0.00 | 0.11 | 0.11 | 92 | 1018.7 |
| 20260901235024 | 63 | 132 | 2.0 | 9.0 | 0.00 | 0.11 | 0.11 | 92 | 1018.5 |
| 20260901234024 | 63 | 179 | 6.0 | 9.0 | 0.00 | 0.11 | 0.11 | 92 | 1018.4 |
| 20260901233003 | 63 | 200 | 3.0 | 7.0 | 0.00 | 0.11 | 0.11 | 93 | 1018.4 |
| 20260901232004 | 64 | 159 | 4.0 | 7.0 | 0.00 | 0.11 | 0.11 | 93 | 1018.5 |
| 20260901231003 | 64 | 146 | 2.0 | 6.0 | 0.00 | 0.11 | 0.11 | 93 | 1018.5 |
| 20260901230004 | 64 | 119 | 3.0 | 6.0 | 0.00 | 0.11 | 0.11 | 93 | 1018.3 |
| 20260901225003 | 64 | 160 | 2.0 | 5.0 | 0.00 | 0.11 | 0.11 | 92 | 1018.3 |
| 20260901224024 | 64 | 184 | 2.0 | 5.0 | 0.00 | 0.11 | 0.11 | 92 | 1018.3 |
| 20260901223003 | 64 | 132 | 2.0 | 6.0 | 0.00 | 0.11 | 0.11 | 91 | 1018.5 |
| 20260901222003 | 64 | 156 | 3.0 | 6.0 | 0.00 | 0.11 | 0.11 | 90 | 1018.5 |
| 20260901221003 | 64 | 165 | 5.0 | 11.0 | 0.00 | 0.11 | 0.11 | 90 | 1018.6 |
| 20260901220003 | 64 | 178 | 4.0 | 16.0 | 0.00 | 0.11 | 0.11 | 90 | 1018.8 |
| 20260901215024 | 64 | 173 | 2.0 | 16.0 | 0.00 | 0.11 | 0.11 | 90 | 1018.6 |
| 20260901214005 | 64 | 174 | 9.0 | 16.0 | 0.00 | 0.11 | 0.11 | 90 | 1018.8 |
| 20260901213004 | 64 | 184 | 8.0 | 16.0 | 0.00 | 0.11 | 0.11 | 90 | 1018.9 |
| 20260901212005 | 64 | 178 | 5.0 | 9.0 | 0.00 | 0.11 | 0.11 | 91 | 1018.6 |
| 20260901211004 | 65 | 166 | 4.0 | 12.0 | 0.00 | 0.11 | 0.11 | 89 | 1018.3 |
| 20260901210004 | 65 | 161 | 3.0 | 12.0 | 0.00 | 0.11 | 0.11 | 90 | 1018.2 |
| 20260901205003 | 65 | 169 | 4.0 | 8.0 | 0.00 | 0.11 | 0.11 | 91 | 1018.3 |
| 20260901204003 | 65 | 155 | 2.0 | 8.0 | 0.00 | 0.11 | 0.11 | 90 | 1018.3 |
| 20260901203003 | 65 | 132 | 3.0 | 8.0 | 0.00 | 0.11 | 0.11 | 90 | 1018.2 |